Regional Weather Roundup
Issued by NWS Grand Forks, ND

Home | Current Version | Previous Version | Text Only | Print | Product List | Glossary On
Versions: 1 2 3 4 5 6 7 8 9 10 11 12 13 14 15 16 17 18 19 20 21 22 23 24 25 26 27 28 29 30 31 32 33 34 35 36 37 38 39 40 41 42 43 44 45 46 47 48 49 50
000
ASUS43 KFGF 031831
RWRFGF
PRAIRIE TO PINES  WEATHER ROUNDUP
NATIONAL WEATHER SERVICE EASTERN NORTH DAKOTA/GRAND FORKS ND
100 PM CDT MON AUG 03 2015

 **SATELLITE DATA USED TO AUGMENT SKY COVER AT AUTOMATED STATIONS**
 *****  WEATHER ACROSS EASTERN NORTH DAKOTA  *****

CITY           SKY/WX    TMP DP  RH WIND       PRES   REMARKS
GRAND FORKS    MOSUNNY   74  51  44 NW14G21   29.93F
6HR MIN TEMP:  51; 6HR MAX TEMP:  74;

GRAND FRKS AFB SUNNY     74  51  44 N15       29.94F
GRAND FRKS NWS   N/A     73 N/A N/A N7          N/A
DEVILS LAKE    SUNNY     73  46  38 NW12      29.97S
6HR MIN TEMP:  54; 6HR MAX TEMP:  73;

FARGO          SUNNY     77  46  33 N18       29.94F
WAHPETON ARPT  CLEAR     77  43  29 NW14G20   29.95F
$$

 ***** WEATHER ACROSS CENTRAL AND WESTERN NORTH DAKOTA  *****

CITY           SKY/WX    TMP DP  RH WIND       PRES   REMARKS
BISMARCK       SUNNY     77  50  38 W9        30.02F
6HR MIN TEMP:  55; 6HR MAX TEMP:  78;

MINOT          SUNNY     76  45  33 W9        30.01S
6HR MIN TEMP:  53; 6HR MAX TEMP:  76;

JAMESTOWN      SUNNY     74  46  36 NW12      29.99F
6HR MIN TEMP:  54; 6HR MAX TEMP:  74;

MINOT AFB      SUNNY     80  45  29 VRB3      30.00F
GARRISON         N/A     74  49  41 VRB7      30.02F
WILLISTON      SUNNY     77  47  34 VRB6      30.03F
6HR MIN TEMP:  51; 6HR MAX TEMP:  78;

DICKINSON      SUNNY     76  48  37 E5        30.02F
6HR MIN TEMP:  48; 6HR MAX TEMP:  77;

HETTINGER      SUNNY     77  50  38 VRB6      30.04F
6HR MIN TEMP:  44; 6HR MAX TEMP:  78;

$$

 *****  OTHER AIRPORT OBSERVATIONS IN OUR AREA  *****

CITY           SKY/WX    TMP DP  RH WIND       PRES   REMARKS
WALHALLA       FAIR      72  50  46 MISG      29.94S
GRAFTON AIRPOR FAIR      73  50  43 NW14G22   29.94F
VALLEY CITY AR FAIR      73  46  38 NW10      29.98S
CANDO          FAIR      75  43  31 N13       29.98F
CAVALIER APRT  FAIR      73  48  40 NW13G24   29.93F
GWINNER        FAIR      75  50  41 NW10G17   29.98S
SHEYENNE NWR     N/A     76  47  35 NW10      29.95S
ROLLA            N/A     70  41  35 NW13      30.00S
 ***** THE ABOVE OBSERVATIONS ARE NON NWS ARE NOT QUALITY
       CONTROLLED AND MAY MIS-REPORT RAIN FOR SNOW...
$$

  *****  WEATHER ACROSS NORTHERN MINNESOTA  *****

CITY           SKY/WX    TMP DP  RH WIND       PRES   REMARKS
FLAG ISLAND    CLOUDY    61  55  82 NW17G26   29.86R
WARROAD        CLOUDY    64  54  68 W9G21     29.89S
ROSEAU         PTSUNNY   66  55  68 NW12G20   29.90R
HALLOCK        MOSUNNY   72  50  46 NW14G22   29.92S
THF RVR FALLS  SUNNY     70  48  46 NW17G24   29.93R
6HR MIN TEMP:  52; 6HR MAX TEMP:  70;

BAUDETTE       CLOUDY    64  52  64 NW13      29.87S
6HR MIN TEMP:  57; 6HR MAX TEMP:  65; 6HR PCP: TRACE;

WASKISH        CLOUDY    66  54  63 W10G16    29.88S
CROOKSTON      MOSUNNY   72  52  49 N18G25    29.94S
STEPHEN NDAWN    N/A     72  52  49 NW18        N/A
GREENBUSH NDAW   N/A     70  52  52 NW12        N/A
$$
  *****  WEATHER ACROSS CENTRAL AND WEST MINNESOTA  *****

CITY           SKY/WX    TMP DP  RH WIND       PRES   REMARKS
FOSSTON        PTSUNNY   72  48  43 NW16G23   29.93S
BEMIDJI        CLOUDY    69  50  50 W18G25    29.90S
PARK RAPIDS    PTSUNNY   74  47  38 NW18G28   29.92S
6HR MIN TEMP:  52; 6HR MAX TEMP:  74;

ELBOW LAKE     FAIR      74  50  43 N13       29.94F
WADENA         SUNNY     73  46  38 W15G22    29.92F
DETROIT LAKES  SUNNY     72  46  40 NW14G20   29.95F
MOORHEAD       SUNNY     73  48  40 NW10G21   29.94F
FERGUS FALLS   SUNNY     73  52  46 NW13G21   29.93F
MORRIS MN      MOSUNNY   75  54  46 NW10G18   29.95S
STAPLES        MOSUNNY   73  43  33 NW13G25   29.92S
$$
  *****  WEATHER ELSEWHERE ACROSS MINNESOTA  *****

CITY           SKY/WX    TMP DP  RH WIND       PRES   REMARKS
DULUTH         PTSUNNY   67  51  56 NW13      29.85F
6HR MIN TEMP:  59; 6HR MAX TEMP:  69;

INTRNTL FALLS  CLOUDY    64  54  69 NW16G22   29.84S
6HR MIN TEMP:  59; 6HR MAX TEMP:  66; 6HR PCP:  0.01;

ELY            PTSUNNY   64  50  59 W12G20    29.82S
CLOQUET        CLOUDY    68  50  52 W13G18    29.87R
WHEATON        MOSUNNY   73  52  46 NW8G18    29.97S
BRAINERD       PTSUNNY   73  46  38 NW15G24   29.91S
6HR MIN TEMP:  58; 6HR MAX TEMP:  74;

HIBBING        CLOUDY    67  53  61 W12G21    29.86S
6HR MIN TEMP:  57; 6HR MAX TEMP:  67;

ALEXANDRIA     SUNNY     74  47  38 W18       29.96F
6HR MIN TEMP:  56; 6HR MAX TEMP:  74;

SAINT CLOUD    MOSUNNY   75  48  38 NW13G22   29.92F
6HR MIN TEMP:  56; 6HR MAX TEMP:  76;

MINNEAPOLIS    MOSUNNY   76  48  37 NW14      29.91F
6HR MIN TEMP:  62; 6HR MAX TEMP:  76;

$$

  *****  WEATHER ACROSS SOUTH DAKOTA  *****

CITY           SKY/WX    TMP DP  RH WIND       PRES   REMARKS
SIOUX FALLS    MOSUNNY   78  57  48 NW9       30.00S
6HR MIN TEMP:  58; 6HR MAX TEMP:  79;

BROOKINGS      MOSUNNY   75  54  46 W8        30.01S
WATERTOWN      SUNNY     77  52  41 W12       29.99F
6HR MIN TEMP:  53; 6HR MAX TEMP:  77;

HURON          MOSUNNY   79  54  41 VRB5      29.98F
6HR MIN TEMP:  56; 6HR MAX TEMP:  80;

SISSETON         N/A     77  53  43 N12G21    29.96F
ABERDEEN       SUNNY     79  49  34 MISG      29.99F
6HR MIN TEMP:  53; 6HR MAX TEMP:  79;

MITCHELL       SUNNY     79  58  48 CALM      30.00S
PIERRE         SUNNY     80  53  39 CALM      30.00F
6HR MIN TEMP:  57; 6HR MAX TEMP:  81;

MOBRIDGE       SUNNY     79  56  45 W7        29.99F
RAPID CITY     SUNNY     79  57  46 E12       30.04F
6HR MIN TEMP:  58; 6HR MAX TEMP:  79;

$$

  *****  SOME WEATHER IN NEARBY STATES *****

CITY           SKY/WX    TMP DP  RH WIND       PRES   REMARKS
GLASGOW MT     SUNNY     80  47  31 SE12      29.99F
6HR MIN TEMP:  56; 6HR MAX TEMP:  80;

GREAT FALLS MT MOSUNNY   85  46  25 NE9       29.91F
6HR MIN TEMP:  56; 6HR MAX TEMP:  85;

CHEYENNE WY    PTSUNNY   84  40  21 S13G25    30.14S
6HR MIN TEMP:  59; 6HR MAX TEMP:  86;

SCOTTSBLUFF NE PTSUNNY   81  61  50 SE10      30.02F
6HR MIN TEMP:  59; 6HR MAX TEMP:  81;

OMAHA NE       LGT RAIN  77  62  59 CALM      29.97F
6HR MIN TEMP:  67; 6HR MAX TEMP:  78; 6HR PCP: TRACE;

DES MOINES IA  MOSUNNY   81  55  40 VRB6      29.95F
6HR MIN TEMP:  68; 6HR MAX TEMP:  81;

DAVENPORT IA   SUNNY     78  53  41 NW7       29.94S
6HR MIN TEMP:  63; 6HR MAX TEMP:  79;

CHICAGO IL     MOSUNNY   80  49  33 W14       29.86S
6HR MIN TEMP:  69; 6HR MAX TEMP:  80;

EAU CLAIRE WI  MOSUNNY   76  50  40 W21G26    29.86S
6HR MIN TEMP:  58; 6HR MAX TEMP:  77;

LA CROSSE WI   SUNNY     79  48  33 NW15      29.89S
6HR MIN TEMP:  62; 6HR MAX TEMP:  80;

$$

  *****  SOME NATIONAL WEATHER *****

CITY           SKY/WX    TMP DP  RH WIND       PRES   REMARKS
LA GUARDIA NY  MOSUNNY   89  59  36 S13G22    29.79F
6HR MIN TEMP:  79; 6HR MAX TEMP:  89;

RALEIGH NC     PTSUNNY   91  67  44 SW12      29.93F HX  94
6HR MIN TEMP:  74; 6HR MAX TEMP:  91;

ATLANTA GA     MOSUNNY   89  69  51 W5        29.94F HX  93
6HR MIN TEMP:  75; 6HR MAX TEMP:  91;

NEW ORLEANS LA PTSUNNY   94  67  41 NE9       29.91F HX  97
6HR MIN TEMP:  79; 6HR MAX TEMP:  95;

OKLAHOMA CITY  CLOUDY    82  67  60 VRB6      29.97F
6HR MIN TEMP:  72; 6HR MAX TEMP:  83; 6HR PCP: TRACE;

ALBUQUERQUE NM MOSUNNY   79  55  43 W6        30.19F
6HR MIN TEMP:  63; 6HR MAX TEMP:  79;

SALT LAKE CITY RAIN      62  61  96 NW7       30.13R
6HR MIN TEMP:  62; 6HR MAX TEMP:  65; 6HR PCP:  0.27;

LOS ANGELES CA MOSUNNY   75  65  70 SW9       29.92R



USA.gov is the U.S. government's official web portal to all federal, state and local government web resources and services.